Detalii statie BARBIERU PROD [00001CE8]

Toti senzorii

Date Temperatura solului [C]Precipitatii [mm]Voltaj baterie [mV]Leaf Wetness [Min]HC Air temperature [C]HC Relative humidity [%]Punctul de roua [C]
medieminmaxsumaultimatimpmedieminmaxmediemediemin
2019-06-15 17:00:00 1.2 6688
2019-06-15 18:00:00 1.4 6678
2019-06-15 19:00:00 1.2 6668
2019-06-15 20:00:00 1.2 6668
2019-06-15 21:00:00 0.6 6668
2019-06-15 22:00:00 1.2 6660
2019-06-15 23:00:00 1.2 6640
2019-06-16 00:00:00 0.4 6640
2019-06-16 01:00:00 0.6 6630
2019-06-16 02:00:00 0.8 6610
2019-06-16 03:00:00 0.4 6610
2019-06-16 04:00:00 0.2 6620
2019-06-16 05:00:00 0 6620
2019-06-16 06:00:00 0.2 6650
2019-06-16 07:00:00 0 6650
2019-06-16 08:00:00 0 6668
2019-06-16 09:00:00 0 6688
2019-06-16 10:00:00 0 6776
2019-06-16 11:00:00 0 6864
2019-06-16 12:00:00 0 6914
2019-06-16 13:00:00 0 6854
2019-06-16 14:00:00 0 6806
2019-06-16 15:00:00 0 6806
2019-06-16 16:00:00 0 6796
2019-06-16 17:00:00 0 6776
2019-06-16 18:00:00 0 6728
2019-06-16 19:00:00 0 6698
2019-06-16 20:00:00 0 6688
2019-06-16 21:00:00 0 6678
2019-06-16 22:00:00 0 6678
2019-06-16 23:00:00 0 6668
2019-06-17 00:00:00 0 6668
2019-06-17 01:00:00 0 6640
2019-06-17 02:00:00 0 6650
2019-06-17 03:00:00 0 6640
2019-06-17 04:00:00 0 6640
2019-06-17 05:00:00 0 6630
2019-06-17 06:00:00 0 6650
2019-06-17 07:00:00 0.2 6668
2019-06-17 08:00:00 0 6678
2019-06-17 09:00:00 0 6708
2019-06-17 10:00:00 0 6796
2019-06-17 11:00:00 0 6864
2019-06-17 12:00:00 0 6914
2019-06-17 13:00:00 0 6854
2019-06-17 14:00:00 0 6864
2019-06-17 15:00:00 0 6854
2019-06-17 16:00:00 0 6826